Weather History for KVRB - May, 2013

Change the Weather History Date:

Wednesday, May 29, 2013

  Actual Average Record
Temperature  
Mean Temperature 79 °F 78 °F  
Max Temperature 84 °F 87 °F 99 °F (2000)
Min Temperature 73 °F 70 °F 62 °F (2008)
Degree Days  
Heating Degree Days 0 0  
Month to date heating degree days 0 0  
Since 1 July heating degree days 398 455  
Cooling Degree Days 14 14  
Month to date cooling degree days 283 320  
Year to date cooling degree days 874 778  
Growing Degree Days 28 (Base 50)    
Moisture  
Dew Point 72 °F    
Average Humidity 79    
Maximum Humidity 88    
Minimum Humidity 69    
Precipitation  
Precipitation 0.36 in 0.16 in 1.73 in (1978)
Month to date precipitation 8.17 3.04  
Year to date precipitation 15.20 15.05  
Sea Level Pressure  
Sea Level Pressure 30.10 in    
Wind  
Wind Speed 13 mph (ESE)    
Max Wind Speed 26 mph    
Max Gust Speed 31 mph    
Visibility 9 miles    
Events Rain    
T = Trace of Precipitation, MM = Missing Value Source: NWS Daily Summary

Daily Weather History Graph

Daily Weather History Graph

Search for Another Location

Airport or City:

Trip Planner

Search our weather history database for the weather conditions in past years. The results will help you decide how hot, cold, wet, or windy it might be!

Date:

Astronomy

May. 29, 2013 Rise Set
Actual Time 6:26 AM EDT 8:11 PM EDT
Civil Twilight 6:00 AM EDT 8:37 PM EDT
Nautical Twilight 5:29 AM EDT 9:09 PM EDT
Astronomical Twilight 4:56 AM EDT 9:42 PM EDT
Moon No Moon Rise 11:10 AM EDT (5/29)
Length of Visible Light 14h 37m
Length of Day
13h 44m
Waning Gibbous, 73% of the Moon is Illuminated
May 29
Waning Gibbous
May 31
Last Quarter
Jun 8
New
Jun 16
First Quarter
Jun 23
Full

Hourly Weather History & Observations

Time (EDT) Temp. Heat Index Dew Point Humidity Pressure Visibility Wind Dir Wind Speed Gust Speed Precip Events Conditions
12:31 AM 75.2 °F - 71.6 °F 89% 30.12 in 10.0 mi ESE 11.5 mph - N/A   Scattered Clouds
12:53 AM 75.9 °F - 71.1 °F 85% 30.11 in 10.0 mi East 5.8 mph - N/A   Clear
1:53 AM 77.0 °F - 73.0 °F 88% 30.10 in 10.0 mi East 10.4 mph - N/A   Mostly Cloudy
2:53 AM 77.0 °F - 73.0 °F 88% 30.08 in 10.0 mi East 9.2 mph - 0.00 in Rain Light Rain
3:07 AM 77.0 °F - 71.6 °F 83% 30.08 in 10.0 mi East 8.1 mph 19.6 mph 0.00 in   Mostly Cloudy
3:53 AM 75.0 °F - 72.0 °F 90% 30.07 in 10.0 mi SE 11.5 mph - 0.02 in   Mostly Cloudy
4:18 AM 73.4 °F - 71.6 °F 94% 30.08 in 1.8 mi SE 5.8 mph - 0.12 in Rain Heavy Rain
4:28 AM 73.4 °F - 71.6 °F 94% 30.07 in 3.0 mi ESE 5.8 mph - 0.30 in Rain Light Rain
4:37 AM 75.2 °F - 71.6 °F 89% 30.08 in 10.0 mi SE 6.9 mph - 0.30 in Rain Light Rain
4:53 AM 75.0 °F - 73.0 °F 94% 30.07 in 9.0 mi Calm Calm - 0.31 in Rain Light Rain
5:53 AM 77.0 °F - 73.0 °F 88% 30.06 in 10.0 mi East 12.7 mph - 0.01 in   Scattered Clouds
6:44 AM 77.0 °F - 71.6 °F 83% 30.08 in 10.0 mi East 10.4 mph - N/A   Mostly Cloudy
6:51 AM 77.0 °F - 71.6 °F 83% 30.08 in 10.0 mi ESE 13.8 mph 19.6 mph N/A   Scattered Clouds
6:53 AM 78.1 °F - 72.0 °F 81% 30.08 in 10.0 mi East 13.8 mph 19.6 mph N/A   Scattered Clouds
7:53 AM 78.1 °F - 72.0 °F 81% 30.10 in 10.0 mi ESE 13.8 mph - N/A   Partly Cloudy
8:51 AM 78.8 °F - 71.6 °F 78% 30.11 in 10.0 mi ESE 13.8 mph - N/A   Mostly Cloudy
8:53 AM 79.0 °F - 73.0 °F 82% 30.11 in 10.0 mi ESE 12.7 mph - N/A   Mostly Cloudy
9:53 AM 75.9 °F - 73.0 °F 91% 30.12 in 6.0 mi ESE 6.9 mph - 0.02 in Rain Light Rain
10:53 AM 78.1 °F - 72.0 °F 81% 30.13 in 10.0 mi ESE 19.6 mph 31.1 mph 0.00 in   Overcast
11:09 AM 77.0 °F - 71.6 °F 83% 30.13 in 8.0 mi ESE 11.5 mph - 0.00 in Rain Light Rain
11:53 AM 80.1 °F 83.8 °F 72.0 °F 76% 30.13 in 10.0 mi SE 16.1 mph - 0.00 in   Mostly Cloudy
12:53 PM 82.0 °F 87.4 °F 73.0 °F 74% 30.14 in 10.0 mi ESE 11.5 mph - N/A   Mostly Cloudy
1:53 PM 84.0 °F 90.2 °F 73.0 °F 69% 30.12 in 10.0 mi ESE 17.3 mph - N/A   Partly Cloudy
2:53 PM 82.0 °F 86.7 °F 72.0 °F 71% 30.11 in 10.0 mi ESE 13.8 mph 25.3 mph N/A   Partly Cloudy
3:53 PM 81.0 °F 84.9 °F 71.1 °F 72% 30.09 in 10.0 mi SE 10.4 mph - N/A   Mostly Cloudy
4:53 PM 82.9 °F 88.0 °F 72.0 °F 69% 30.09 in 10.0 mi East 17.3 mph 25.3 mph N/A   Partly Cloudy
5:53 PM 82.0 °F 86.7 °F 72.0 °F 71% 30.09 in 10.0 mi East 17.3 mph 21.9 mph N/A   Clear
6:53 PM 81.0 °F 85.2 °F 72.0 °F 74% 30.08 in 10.0 mi ESE 17.3 mph - N/A   Clear
7:53 PM 80.1 °F 83.8 °F 72.0 °F 76% 30.08 in 10.0 mi East 11.5 mph 20.7 mph N/A   Partly Cloudy
8:53 PM 79.0 °F - 72.0 °F 79% 30.08 in 10.0 mi ESE 12.7 mph 19.6 mph N/A   Clear
9:53 PM 79.0 °F - 72.0 °F 79% 30.10 in 10.0 mi East 11.5 mph - N/A   Clear
10:53 PM 79.0 °F - 72.0 °F 79% 30.11 in 10.0 mi ESE 15.0 mph - N/A   Scattered Clouds
11:53 PM 78.1 °F - 72.0 °F 81% 30.10 in 10.0 mi ESE 15.0 mph - 0.00 in   Partly Cloudy